This is the latest recevied weather packets stored in our database for station/object ZL2VAX. If no packets are shown the sender has not sent any weather packets the latest 10 day(s).
| Time | Temp. | Humidity | Pressure | Rain* | Wind** | Luminosity | Snow |
|---|---|---|---|---|---|---|---|
| 1778041554 | 19.44° C | 71% | 1027 hPa | 0 mm | - | - | - |
| 1778034986 | 18.89° C | 73% | 1027.1 hPa | 0 mm | - | - | - |
| 1778033761 | 18.89° C | 72% | 1027.2 hPa | 0 mm | - | - | - |
| 1778028358 | 19.44° C | 71% | 1027.7 hPa | 0 mm | - | - | - |
| 1778027137 | 19.44° C | 69% | 1027.8 hPa | 0 mm | - | - | - |
| 1778026534 | 19.44° C | 69% | 1028 hPa | 0 mm | - | - | - |
| 1778024140 | 19.44° C | 70% | 1028.3 hPa | 0 mm | - | - | - |
| 1778023558 | 18.89° C | 70% | 1028.4 hPa | 0 mm | - | - | - |
| 1778022994 | 18.89° C | 70% | 1028.4 hPa | 0 mm | - | - | - |
| 1778020564 | 17.78° C | 74% | 1028.7 hPa | 0 mm | - | - | - |
| 1778020002 | 17.22° C | 75% | 1028.9 hPa | 0 mm | - | - | - |
| 1778016948 | 16.11° C | 79% | 1029.4 hPa | 0 mm | - | - | - |
| 1778012731 | 14.44° C | 79% | 1029.5 hPa | 0 mm | - | - | - |
| 1778010320 | 13.89° C | 80% | 1029.4 hPa | 0 mm | - | - | - |
| 1778007367 | 13.33° C | 80% | 1029.2 hPa | 0 mm | - | - | - |
| 1778003150 | 12.78° C | 83% | 1029.2 hPa | 0 mm | - | - | - |
| 1778001367 | 13.33° C | 81% | 1029.6 hPa | 0 mm | - | - | - |
| 1778000739 | 13.89° C | 80% | 1029.6 hPa | 0 mm | - | - | - |
| 1777997726 | 13.89° C | 80% | 1029.7 hPa | 0 mm | - | - | - |
| 1777997123 | 13.89° C | 80% | 1029.5 hPa | 0 mm | - | - | - |
| 1777992965 | 13.33° C | 84% | 1030 hPa | 0 mm | - | - | - |
| 1777991761 | 12.22° C | 87% | 1030.2 hPa | 0 mm | - | - | - |
| 1777982721 | 11.67° C | 85% | 1031.6 hPa | 0 mm | - | - | - |
| 1777982119 | 11.11° C | 86% | 1031.6 hPa | 0 mm | - | - | - |
| 1777981517 | 11.11° C | 86% | 1031.7 hPa | 0 mm | - | - | - |
* Rain latest hour (hover to see other rain measurements)
** Current wind speed in m/s (hover to see current wind gust speed)